Location: Lima
(44.6384°N, 112.5920°W)
Time: 04:24:42
(UTC+00:00)

CAS-4A - Visible Passes

Search period start: 18 April 2024 00:00
Search period end: 28 April 2024 00:00
Orbit: 480 x 497 km, 43.0° (Epoch: 17 April)

Date Brightness Start Highest point End Pass type
(mag) Time Alt. Az. Time Alt. Az. Time Alt. Az.
18 Apr ? 09:53:08 11° ESE 09:53:08 11° ESE 09:53:25 10° ESE visible
18 Apr ? 11:27:28 20° SW 11:29:43 45° SSE 11:33:24 10° E visible
19 Apr ? 11:02:27 32° SSW 11:03:40 44° SSE 11:07:21 10° E visible
20 Apr ? 10:37:23 44° S 10:37:34 44° SSE 10:41:14 10° E visible
21 Apr ? 10:12:15 37° SE 10:12:15 37° SE 10:15:05 10° E visible
21 Apr ? 11:46:34 10° W 11:50:17 70° S 11:54:08 10° E visible
22 Apr ? 09:47:04 24° ESE 09:47:04 24° ESE 09:48:52 10° E visible
22 Apr ? 11:21:24 18° W 11:24:05 70° S 11:27:54 10° E visible
23 Apr ? 09:21:52 15° E 09:21:52 15° E 09:22:37 10° E visible
23 Apr ? 10:56:11 31° WSW 10:57:50 70° S 11:01:39 10° E visible
24 Apr ? 10:30:58 58° SW 10:31:31 70° S 10:35:20 10° E visible
25 Apr ? 10:05:46 57° ESE 10:05:46 57° ESE 10:08:58 10° E visible
25 Apr ? 11:40:23 10° W 11:44:02 44° SSW 11:47:41 10° SE visible
26 Apr ? 09:40:37 28° ESE 09:40:37 28° ESE 09:42:33 10° E visible
26 Apr ? 11:14:57 17° W 11:17:37 44° SSW 11:21:16 10° SE visible
27 Apr ? 09:15:35 13° E 09:15:35 13° E 09:16:05 10° E visible
27 Apr ? 10:49:54 32° WSW 10:51:09 44° SSW 10:54:47 10° SE visible
